Flag for Canada Weather past 2 weeks in Fredericton, New Brunswick, Canada

Now
37 °F

Overcast.


Feels Like: 32 °F
Forecast: 35 / 49 °F
Wind: 7 mph from Southwest

Location: Fredericton

Current Time: Apr 25, 2015 at 12:06:20 AM

Latest Report: Apr 24, 2015 at 11:00 PM


Visibility: 9 mi

Pressure: 29.56 "Hg

Humidity: 93%

Dew point: 36 °F

Location of FrederictonLocation

Historic Weather in Fredericton — Graph

°F

Fredericton temperature yesterday

Maximum temperature yesterday: 43 °F (at 4:00 PM)
Minimum temperature yesterday: 34 °F (at 5:00 AM)
Average temperature yesterday: 38 °F

Past Weeks' High & Low Weather Summary

 TemperatureHumidityPressure
High66 °F (Apr 13, 2:00 PM)100% (Apr 10, 12:00 PM)30.43 "Hg (Apr 10, 12:00 PM)
Low25 °F (Apr 20, 4:00 AM)19% (Apr 14, 5:00 PM)29.46 "Hg (Apr 11, 1:00 PM)
Average42 °F68%29.93 "Hg
* Reported Apr 9 11:00 PM — Apr 24 11:00 PM, Fredericton, Weather by CustomWeather, © 2015

Note: Actual official high and low records may vary slightly from our data, if they occured in-between our weather recording intervals... More about our weather records

Advertising

Fredericton weather history for previous 24 hours

 ConditionsComfort  
Time TempWeatherWind HumidityBarometerVisibility
11:00 PM
Fri, Apr 24
37 °FOvercast.7 mph93%29.56 "Hg9 mi
10:01 PM37 °FMostly cloudy.6 mph93%29.56 "Hg9 mi
8:00 PM39 °FOvercast.8 mph81%29.54 "Hg9 mi
7:00 PM43 °FCloudy.8 mph76%29.52 "Hg9 mi
6:00 PM43 °FCloudy.9 mph76%29.51 "Hg9 mi
5:04 PM41 °FMostly cloudy.9 mph87%29.51 "Hg9 mi
4:00 PM43 °FLight rain. More clouds than sun.6 mph81%29.49 "Hg9 mi
3:00 PM39 °FLight rain. More clouds than sun.6 mph93%29.51 "Hg9 mi
2:00 PM41 °FLight rain. Cloudy.7 mph87%29.50 "Hg9 mi
1:00 PM39 °FLight rain. More clouds than sun.3 mph93%29.50 "Hg9 mi
12:03 PM41 °FLight rain. Mostly cloudy.6 mph81%29.50 "Hg9 mi
11:00 AM39 °FOvercast.5 mph81%29.52 "Hg9 mi
10:00 AM39 °FMostly cloudy.5 mph81%29.52 "Hg9 mi
9:00 AM36 °FOvercast.6 mph93%29.52 "Hg9 mi
8:00 AM36 °FMostly cloudy.6 mph93%29.52 "Hg9 mi
7:03 AM34 °FMostly cloudy.3 mph100%29.52 "Hg9 mi
6:00 AM34 °FLow clouds.6 mph100%29.52 "Hg9 mi
5:00 AM34 °FLight rain. Low clouds.5 mph100%29.51 "Hg9 mi
4:00 AM36 °FLight rain. Mostly cloudy.7 mph93%29.52 "Hg7 mi
3:00 AM36 °FLight rain. Fog.8 mph100%29.52 "Hg5 mi
2:57 AM36 °FLight rain. Fog.8 mph100%29.52 "Hg5 mi
2:04 AM36 °FLight rain. Low clouds.6 mph100%29.53 "Hg9 mi
1:00 AM37 °FLow clouds.8 mph93%29.54 "Hg9 mi
12:00 AM39 °FMostly cloudy.6 mph93%29.54 "Hg9 mi
Weather by CustomWeather, © 2015

See weather overviewHow to use our weather pages